Fairbanks Eiels, AK

7:03 PM AKST on February 20, 2018 (GMT -0900)
Eielson Air Force Base

Weather History for PAEI - February, 2013

Change the Weather History Date:

Thursday, February 14, 2013

  Actual Average Record
Temperature  
Mean Temperature 8 °F -  
Max Temperature 19 °F 4 °F 39 °F (2005)
Min Temperature -3 °F -16 °F -53 °F (1950)
Degree Days  
Heating Degree Days 57    
Moisture  
Dew Point 4 °F    
Average Humidity 84    
Maximum Humidity 89    
Minimum Humidity 78    
Precipitation  
Precipitation 0.00 in - - ()
Sea Level Pressure  
Sea Level Pressure 29.52 in    
Wind  
Wind Speed 2 mph (North)    
Max Wind Speed 7 mph    
Max Gust Speed -    
Visibility 10 miles    
Events      
Averages and records for this station are not official NWS values.
T = Trace of Precipitation, MM = Missing Value Source: NWS Daily Summary

Daily Weather History Graph

Daily Weather History Graph

Search for Another Location

Airport or City:

Trip Planner

Search our weather history database for the weather conditions in past years. The results will help you decide how hot, cold, wet, or windy it might be!

Date:

Astronomy

Feb. 14, 2013 Rise Set
Actual Time 8:48 AM AKST 5:18 PM AKST
Civil Twilight 7:55 AM AKST 6:10 PM AKST
Nautical Twilight 6:58 AM AKST 7:08 PM AKST
Astronomical Twilight 6:02 AM AKST 8:04 PM AKST
Moon 8:50 AM AKST (2/14) No Moon Set
Length of Visible Light 10h 15m
Length of Day
8h 30m
Waxing Crescent, 23% of the Moon is Illuminated
Feb 14
Waxing Crescent
Feb 17
First Quarter
Feb 25
Full
Mar 4
Last Quarter
Mar 11
New

Hourly Weather History & Observations

Time (AKST) Temp. Windchill Dew Point Humidity Pressure Visibility Wind Dir Wind Speed Gust Speed Precip Events Conditions
12:55 AM -0.0 °F -11.6 °F -4.2 °F 83% 29.78 in 10.0 mi North 5.8 mph - N/A   Clear
1:55 AM -1.7 °F - -6.2 °F 81% 29.76 in 10.0 mi Calm Calm - N/A   Clear
2:55 AM -1.7 °F - -5.8 °F 83% 29.74 in 10.0 mi Calm Calm - N/A   Clear
3:55 AM -0.6 °F - -5.1 °F 81% 29.73 in 10.0 mi Calm Calm - N/A   Partly Cloudy
5:55 AM -3.1 °F - -7.8 °F 80% 29.67 in 10.0 mi Calm Calm - N/A   Clear
6:55 AM -2.6 °F - -7.1 °F 81% 29.63 in 10.0 mi Calm Calm - N/A   Scattered Clouds
7:55 AM -1.1 °F -9.1 °F -5.3 °F 83% 29.60 in 10.0 mi Variable 3.5 mph - N/A   Mostly Cloudy
8:55 AM -1.3 °F - -5.6 °F 82% 29.57 in 10.0 mi Calm Calm - N/A   Scattered Clouds
9:55 AM 2.5 °F -10.0 °F -1.5 °F 84% 29.56 in 10.0 mi Variable 6.9 mph - N/A   Mostly Cloudy
10:55 AM 5.0 °F -4.1 °F -0.4 °F 78% 29.54 in 10.0 mi North 4.6 mph - N/A   Mostly Cloudy
11:55 AM 2.7 °F - -1.7 °F 82% 29.51 in 10.0 mi Calm Calm - N/A   Mostly Cloudy
12:38 PM 6.8 °F - 3.2 °F 85% 29.44 in 10.0 mi Calm Calm - N/A   Clear
12:55 PM 7.7 °F 1.0 °F 4.1 °F 85% 29.48 in 10.0 mi North 3.5 mph - N/A   Mostly Cloudy
1:55 PM 13.1 °F - 10.2 °F 88% 29.44 in 10.0 mi Calm Calm - N/A   Overcast
2:55 PM 15.6 °F - 12.9 °F 89% 29.42 in 10.0 mi Calm Calm - N/A   Overcast
3:55 PM 16.9 °F 8.5 °F 14.2 °F 89% 29.41 in 10.0 mi North 5.8 mph - N/A   Overcast
4:55 PM 19.6 °F - 15.1 °F 83% 29.40 in 10.0 mi Calm Calm - N/A   Overcast
5:55 PM 17.1 °F - 13.3 °F 85% 29.39 in 10.0 mi Calm Calm - N/A   Overcast
6:55 PM 14.5 °F - 11.3 °F 87% 29.38 in 10.0 mi Calm Calm - N/A   Overcast
7:55 PM 15.8 °F - 12.4 °F 86% 29.39 in 10.0 mi Calm Calm - N/A   Overcast
8:55 PM 15.3 °F - 11.7 °F 86% 29.40 in 10.0 mi Calm Calm - N/A   Overcast
9:55 PM 15.8 °F - 12.9 °F 88% 29.40 in 10.0 mi Calm Calm - N/A   Overcast
10:55 PM 17.2 °F - 14.0 °F 87% 29.43 in 10.0 mi Calm Calm - N/A   Overcast
11:55 PM 17.2 °F 8.9 °F 13.8 °F 86% 29.46 in 10.0 mi North 5.8 mph - N/A   Partly Cloudy